Regional Weather Roundup
Issued by NWS

Home | Current Version | Previous Version | Text Only | Print | Product List | Glossary Off
Versions: 1 2 3 4 5 6 7 8 9 10 11 12 13 14 15 16 17 18 19 20 21 22 23 24 25 26 27 28 29 30 31 32 33 34 35 36 37 38 39 40 41 42 43 44 45 46 47 48 49 50

000
ASUS43 KLOT 202258
RWRIL

ILLINOIS REGIONAL WEATHER ROUNDUP
NATIONAL WEATHER SERVICE CHICAGO/ROMEOVILLE IL
600 PM CDT SAT SEP 20 2014

NOTE: "FAIR" INDICATES FEW OR NO CLOUDS BELOW 12,000 FEET WITH NO
SIGNIFICANT WEATHER AND/OR OBSTRUCTIONS TO VISIBILITY.

* THESE STATIONS ARE NOT UNDER NWS QUALITY CONTROL. THEY ALSO MAY NOT
  REPORT WEATHER SUCH AS PRECIPITATION OR FOG.

ILZ001-002-007-009-015-016-024-210000-
NORTHWEST ILLINOIS

CITY           SKY/WX    TMP DP  RH WIND       PRES   REMARKS
MOLINE         PTSUNNY   77  67  71 W7        29.81F
$$

ILZ003-004-008-010-011-017-018-210000-
NORTH CENTRAL ILLINOIS

CITY           SKY/WX    TMP DP  RH WIND       PRES   REMARKS
ROCKFORD       NOT AVBL
$$

ILZ005-006-012>014-019>023-210000-
NORTHEAST ILLINOIS

CITY           SKY/WX    TMP DP  RH WIND       PRES   REMARKS
CHICAGO-OHARE  PTCLDY    77  65  66 SW8       29.78S
CHICAGO-MIDWAY PTCLDY    76  67  73 S12       29.79R
AURORA         CLEAR     75  63  66 SW9       29.80S
WAUKEGAN       CLEAR     71  65  81 SW7       29.76S
DUPAGE AIRPORT CLEAR     75  63  66 SW10      29.79R
WHEELING       PTCLDY    76  62  62 SW8       29.79S
NORTHERLY ISL    N/A     75  66  73 S9          N/A
$$

LMZ740>746-210000-
SOUTHERN LAKE MICHIGAN

STATION/POSITION SKY/WX   TEMP    WIND        PRES    VSBY  WAVE
                          AIR SEA DIR/SP/G                  HT/PER
                          (F)     (DEG/KT/KT) (MB)    (MI)  (FT/S)
SOUTHERN BUOY              65 63  210/ 17/ 19 1007.8F         3/ 5
WAUKEGAN HARBOR            67     180/  8/  9   N/A
HARRISON CRIB              73     210/ 10/ 12   N/A
BURNHAM HARBOR             76     190/ 10/ 12   N/A
CALUMET HARBOR             72     200/  7/ 11 1007.8F
MICHIGAN CITY              69     190/ 10/ 12   N/A
MICHIGAN CITY 6N           67 65  180/ 10/ 12   N/A           1/ 3
ST. JOSEPH                 67 65  180/  6/ 10   N/A           2/ 4
$$

ILZ025>027-034>036-040-047-049-050-058-095>099-210000-
WEST-CENTRAL ILLINOIS

CITY           SKY/WX    TMP DP  RH WIND       PRES   REMARKS
$$

ILZ028>032-037-038-041>044-048-051>054-059>061-210000-
CENTRAL ILLINOIS

CITY           SKY/WX    TMP DP  RH WIND       PRES   REMARKS
PEORIA         NOT AVBL
SPRINGFIELD    PTSUNNY   77  71  82 SW6       29.88S THUNDER
TAYLORVILLE    NOT AVBL
$$

ILZ033-039-045-046-055>057-062-063-210000-
EAST-CENTRAL ILLINOIS

CITY           SKY/WX    TMP DP  RH WIND       PRES   REMARKS
CHAMPAIGN      MOCLDY    71  68  90 E6        29.89F
MATTOON        MOCLDY    80  68  66 SW13      29.90S HX  83
$$

ILZ079-100>102-210000-
SOUTHWEST ILLINOIS

CITY           SKY/WX    TMP DP  RH WIND       PRES   REMARKS
CAHOKIA*       MOSUNNY   87  65  47 VRB5      29.90F HX  89
$$

ILZ064>066-069>071-074>076-080>082-084>086-088>090-092>094-210000-
SOUTH-CENTRAL ILLINOIS

CITY           SKY/WX    TMP DP  RH WIND       PRES   REMARKS
CARBONDALE     MOSUNNY   82  68  62 S10       29.93F HX  85
MARION         PTSUNNY   84  68  58 SW12      29.95S HX  87
$$

ILZ067-068-072-073-078-083-087-091-210000-
SOUTHEAST ILLINOIS

CITY           SKY/WX    TMP DP  RH WIND       PRES   REMARKS
$$

ABBREVIATIONS USED IN REMARKS
   TC - TEMPERATURE IN CELSIUS
  WCI - WIND CHILL INDEX
   HX - HEAT INDEX
  VSB - VISIBILITY
$$



USA.gov is the U.S. government's official web portal to all federal, state and local government web resources and services.